Regional Weather Roundup
Issued by NWS

Home | Current Version | Previous Version | Text Only | Print | Product List | Glossary Off
Versions: 1 2 3 4 5 6 7 8 9 10 11 12 13 14 15 16 17 18 19 20 21 22 23 24 25 26 27 28 29 30 31 32 33 34 35 36 37 38 39 40 41 42 43 44 45 46 47 48 49 50

000
ASUS43 KIND 050059
RWRIN

WEATHER ROUNDUP FOR INDIANA
NATIONAL WEATHER SERVICE INDIANAPOLIS IN
900 PM EDT MON MAY 04 2015

NOTE: "FAIR" INDICATES FEW OR NO CLOUDS BELOW 12,000 FEET WITH NO
SIGNIFICANT WEATHER AND/OR OBSTRUCTIONS TO VISIBILITY.

* - STATION DOES NOT REPORT WEATHER SUCH AS PRECIPITATION OR FOG.

+ - STATION NOT QUALITY CONTROLLED BY THE NATIONAL WEATHER SERVICE.
    USE DATA WITH CAUTION...ESPECIALLY DEWPOINT AND RELATIVE
    HUMIDITY OBSERVATIONS.

INZ001>003-010>013-019-020-050200-
NORTHWEST INDIANA

CITY           SKY/WX    TMP DP  RH WIND       PRES   REMARKS
GARY /AIRPORT/ MOCLDY    55 N/A N/A NE8       30.17R HAZE
KNOX *+        CLOUDY    66  52  59 S6        30.14R

$$

LMZ046-743>745-050200-
SOUTHERN LAKE MICHIGAN

STATION/POSITION TIME  TEMP    WIND        PRES    WAVE
                       AIR SEA DIR/SP/G            HT
                 (UTC) (F)     (DEG/KT/KT) (MB)    (FT)
BURNS HARBOR     0000   54      70/  8/ 10 1021.3R
MICHIGAN CITY    0000   54      40/ 11/ 11   N/A
5NW MICH CITY    0000   51 50   50/  6/  6   N/A     1

$$

INZ004-005-014>016-021>024-050200-
NORTH CENTRAL INDIANA

CITY           SKY/WX    TMP DP  RH WIND       PRES   REMARKS
GOSHEN         CLOUDY    67  60  78 CALM      30.16R
SOUTH BEND     MOCLDY    63  55  75 N6        30.17R
WARSAW +       CLOUDY    64  61  88 CALM      30.17R

$$

INZ006>009-017-018-025>027-050200-
NORTHEAST INDIANA

CITY           SKY/WX    TMP DP  RH WIND       PRES   REMARKS
ANGOLA *+      CLEAR     68  61  77 W3        30.16R
FORT WAYNE     LGT RAIN  64  61  90 SW3       30.17S

$$

INZ028-029-035-036-043>045-051>053-050200-
WEST CENTRAL INDIANA

CITY           SKY/WX    TMP DP  RH WIND       PRES   REMARKS
CRAWFORDSVL +  CLOUDY    61  56  85 E7        30.15S
GREENCASTLE +  CLOUDY    64  55  72 NE7       30.15S
LAFAYETTE      MOCLDY    62  60  93 E6        30.14R
TERRE HAUTE    CLOUDY    75  59  57 S3        30.12R

$$

INZ030>032-037>040-046>048-054>057-064-065-050200-
CENTRAL INDIANA

CITY           SKY/WX    TMP DP  RH WIND       PRES   REMARKS
COLUMBUS       CLOUDY    68  61  77 CALM      30.15S
FRANKFORT +    CLOUDY    63  63 100 E10       30.17S
GREENWOOD *+   CLOUDY    68  59  73 N14       30.17
INDIANAPOLIS   CLOUDY    66  58  75 NE14      30.14S
-EAGLE CREEK   CLOUDY    66  58  75 NE8       30.16S
KOKOMO *+      CLOUDY    63  61  94 SE5       30.17S
MT COMFORT *+  CLOUDY    63 N/A N/A NE9       30.19R
SHELBYVILLE    CLOUDY    73  58  59 S5        30.14R

$$

INZ033-034-041-042-049-050-058-059-050200-
EAST CENTRAL INDIANA

CITY           SKY/WX    TMP DP  RH WIND       PRES   REMARKS
MUNCIE         LGT RAIN  65  61  87 NW7       30.19R FOG

$$

INZ060-061-067>069-081>083-085>088-050200-
SOUTHWEST INDIANA

CITY           SKY/WX    TMP DP  RH WIND       PRES   REMARKS
EVANSVILLE     PTCLDY    78  54  43 S8        30.14R
HUNTINGBURG *+ PTCLDY    73  54  49 S6        30.15S

$$

INZ062-063-066-070>080-084-089>092-050200-
SOUTH CENTRAL AND SOUTHEAST INDIANA

CITY           SKY/WX    TMP DP  RH WIND       PRES   REMARKS
BLOOMINGTON    MOCLDY    73  55  53 S5        30.14R
MADISON *+     MOCLDY    72  55  56 CALM      30.18S
SEYMOUR +      MOCLDY    73  57  56 S3        30.14S

$$



USA.gov is the U.S. government's official web portal to all federal, state and local government web resources and services.